DELTA 1 DEB, 42578

Orbit data source: Space-Track

DELTA 1 DEB, 42578 is space debris in LEO originally from a launch on Tue, 06 Nov 1973 UTC launched from the Air Force Western Test Range (AFWTR). Debris objects in space refer to the collection of defunct objects orbiting the Earth. Examples of debris include non-operational satellites, rocket bodies, and fragments generated from explosions, collisions, or faulty payload assembly.

Loading next visibility...
Identifier
42578, 1973-086HS
Orbit
LEO
Last TLE update
2 weeks ago
Origin
Manufacturer
Unknown
Mission
Spacecraft
Bus & Motor
Unknown
Mass
Unknown
Launch date (UTC)
1973-11-06 (52 years ago)
Launch vehicle
Unknown
Launch site
Air Force Western Test Range (AFWTR)
Object type
Payload
Rocket body
Debris
Shape & HBR
Unknown
Radar Cross Section
Small (<0.1 m²)

Expand to show TLE details & history

TLE from 2 weeks ago
0 DELTA 1 DEB
1 42578U 73086HS  25174.40787616 -.00002498  00000-0 -34010-1 0  9992
2 42578 100.7551 151.9954 0761841 283.3635  68.3599 11.35671331 40474
Epoch: 2025-06-23T09:47Z
TLE epoch observation values (Epoch: 2025-06-23T09:47:20.5Z)
Latitude
-0.00004°
Longitude
93.34141°
Altitude
1,793.547 km
Speed
7.065 km/s
True Right ascension
10h 07m 58s
True Declination
0° 00' 00"
Sunlit
Object was in daylight at epoch
Visualization orbit readout
Latitude
43.0011°
Longitude
93.71857°
Altitude
2,485.375 km
Speed
6.508 km/s
Apparent Right ascension
12h 54m 17s
Apparent Declination
38° 05' 25"
Sunlit
Object is in daylight
Visualization observer readout
Local Sidereal Time
08:51:14
Azimuth
71.748° E
Elevation
43.685°
Doppler factor
1
Orbital elements
Apogee altitude
2,616.769 km
Perigee altitude
1,343.253 km
Semi-major axis
8,358.148 km
Eccentricity
0.07618
Inclination
100.7551°
RAAN
151.9954°
Arg. of periapsis
283.3635°
True anomaly
Unknown
Mean anomaly
68.3599°
Eccentric anomaly
Unknown
Mean motion
2.84039 °/min
Orbital period
126.74 mins
BSTAR
-0.03401
Loading maneuver chart data...
Loading SW <> Apogee altitude chart data...
Loading historical data...
Loading historical data...
Loading historical data...
Loading historical data...
Loading historical data...
Loading historical data...
Loading historical data...

DELTA 1 DEB Visibility forecast

Observer location: undefined°, undefined°

Span
Click to sort rows by Start time (UTC) header in descending order
Start Az.
Max El. time (UTC)
Max El. Az.
Max El.
End time (UTC)
End Az.
14 mins2025-07-07 20:47:26.238Z71.999° E2025-07-07 20:49:26.238Z51.836° ENE35.166°2025-07-07 21:01:26.238Z352.468° N
23 mins2025-07-07 22:42:26.238Z183.231° SSW2025-07-07 22:52:26.238Z262.107° W41.535°2025-07-07 23:05:26.238Z338.73° N
8 mins2025-07-08 00:56:26.238Z267.065° W2025-07-08 00:59:26.238Z281.652° WNW12.644°2025-07-08 01:04:26.238Z304.552° NW
20 mins2025-07-08 09:57:26.238Z29.987° NE2025-07-08 10:07:26.238Z90.738° ESE34.382°2025-07-08 10:17:26.238Z161.476° S
22 mins2025-07-08 12:00:26.238Z9.162° NNE2025-07-08 12:12:26.238Z293.819° NW40.211°2025-07-08 12:22:26.238Z223.937° SW
13 mins2025-07-08 14:06:26.238Z353.779° N2025-07-08 14:13:26.238Z320.028° NNW17.374°2025-07-08 14:19:26.238Z289.372° WNW
20 mins2025-07-08 19:57:26.238Z98.613° ESE2025-07-08 20:06:26.238Z48.821° ENE27.143°2025-07-08 20:17:26.238Z356.153° N
|